Location: Casilda
(33.0440°S, 61.1680°W)
Time: 21:05:04
(UTC-03:00)

ISS - Visible Passes

Search period start: 20 April 2018 00:00
Search period end: 30 April 2018 00:00
Orbit: 403 x 406 km, 51.6° (Epoch: 21 April)

Date Brightness Start Highest point End Pass type
(mag) Time Alt. Az. Time Alt. Az. Time Alt. Az.
20 Apr -2.7 06:16:16 27° NW 06:16:16 27° NW 06:18:55 10° N visible
21 Apr -0.8 05:27:03 11° NE 05:27:03 11° NE 05:27:12 10° NE visible
21 Apr -0.9 20:21:18 10° NNW 20:21:22 10° NNW 20:21:22 10° NNW visible
22 Apr -1.7 19:30:23 10° NNE 19:32:03 14° NE 19:32:03 14° NE visible
23 Apr -3.1 20:12:44 10° NW 20:15:19 52° NW 20:15:19 52° NW visible
24 Apr -3.1 19:20:44 10° NNW 19:23:51 38° NE 19:25:45 19° ESE visible
24 Apr -0.3 20:58:02 10° W 20:58:26 12° WSW 20:58:26 12° WSW visible
25 Apr -2.3 20:04:58 10° WNW 20:07:59 32° SW 20:08:43 28° SSW visible
26 Apr -3.5 19:12:20 10° NW 19:15:38 68° SW 19:18:53 11° SE visible
27 Apr -1.2 19:58:00 10° WSW 20:00:04 15° SSW 20:01:36 12° S visible
28 Apr -1.9 19:04:42 10° W 19:07:33 26° SW 19:10:25 10° SSE visible
